Location: Bakhuizen
(52.8696°N, 5.4575°E)
Time: 04:28:35
(UTC+00:00)

Nimbus 7 Rocket - Pass Details

Date: 26 September 2021
Orbit: 922 x 965 km, 99.4° (Epoch: 17 October)

Event Time Altitude Azimuth Distance (km) Brightness Sun altitude
Rises 00:16:31 0° 14° (NNE) 3,583 8.4 -37.5°
Reaches altitude 10° 00:18:59 10° 11° (N) 2,638 7.5 -37.4°
Enters shadow 00:22:33 37° 352° (N) 1,423 5.6 -37.2°
